Year,Month,Day,Hour,Minute,Value (Times are PST for temperature in C)
2010,09,25,10,40,15.30
2010,09,25,10,41,15.40
2010,09,25,10,42,15.50
2010,09,25,10,43,15.50
2010,09,25,10,44,15.60
2010,09,25,10,45,15.70
2010,09,25,10,46,15.80
2010,09,25,10,47,15.80
2010,09,25,10,48,15.80
2010,09,25,10,49,15.80
2010,09,25,10,50,15.80
2010,09,25,10,51,15.80
2010,09,25,10,52,15.80
2010,09,25,10,53,15.90
2010,09,25,10,54,16.00
2010,09,25,10,55,16.00
2010,09,25,10,56,16.10
2010,09,25,10,57,16.10
2010,09,25,10,58,16.20
2010,09,25,10,59,16.20
2010,09,25,11,00,16.30
2010,09,25,11,01,16.30
2010,09,25,11,02,16.40
2010,09,25,11,03,16.40
2010,09,25,11,04,16.40
2010,09,25,11,05,16.30
2010,09,25,11,06,16.40
2010,09,25,11,07,16.50
2010,09,25,11,08,16.50
2010,09,25,11,09,16.60
2010,09,25,11,10,16.70
2010,09,25,11,11,16.60
2010,09,25,11,12,16.60
2010,09,25,11,13,16.50
2010,09,25,11,14,16.40
2010,09,25,11,15,16.40
2010,09,25,11,16,16.30
2010,09,25,11,17,16.20
2010,09,25,11,18,16.20
2010,09,25,11,19,16.20
2010,09,25,11,20,16.10
2010,09,25,11,21,16.10
2010,09,25,11,22,16.10
2010,09,25,11,23,16.10
2010,09,25,11,24,16.10
2010,09,25,11,25,16.10
2010,09,25,11,26,16.10
2010,09,25,11,27,16.20
2010,09,25,11,28,16.30
2010,09,25,11,29,16.40
2010,09,25,11,30,16.40
2010,09,25,11,31,16.40
2010,09,25,11,32,16.40
2010,09,25,11,33,16.40
2010,09,25,11,34,16.40
2010,09,25,11,35,16.30
2010,09,25,11,36,16.30
2010,09,25,11,37,16.30
2010,09,25,11,38,16.40
2010,09,25,11,39,16.40
2010,09,25,11,40,16.50
2010,09,25,11,41,16.60
2010,09,25,11,42,16.60
2010,09,25,11,43,16.60
2010,09,25,11,44,16.50
2010,09,25,11,45,16.50
2010,09,25,11,46,16.40
2010,09,25,11,47,16.40
2010,09,25,11,48,16.30
2010,09,25,11,49,16.40
2010,09,25,11,50,16.40
2010,09,25,11,51,16.50
2010,09,25,11,52,16.60
2010,09,25,11,53,16.70
2010,09,25,11,54,16.80
2010,09,25,11,55,16.80
2010,09,25,11,56,16.90
2010,09,25,11,57,16.90
2010,09,25,11,58,16.90
2010,09,25,11,59,16.90
2010,09,25,12,00,16.90
2010,09,25,12,01,16.90
2010,09,25,12,02,16.90
2010,09,25,12,03,16.90
2010,09,25,12,04,17.00
2010,09,25,12,05,17.00
2010,09,25,12,06,17.00
2010,09,25,12,07,17.10
2010,09,25,12,08,17.30
2010,09,25,12,09,17.30
2010,09,25,12,10,17.40
2010,09,25,12,11,17.40
2010,09,25,12,12,17.50
2010,09,25,12,13,17.50
2010,09,25,12,14,17.50
2010,09,25,12,15,17.50
2010,09,25,12,16,17.60
2010,09,25,12,17,17.60
2010,09,25,12,18,17.70
2010,09,25,12,19,17.70
2010,09,25,12,20,17.80
2010,09,25,12,21,17.90
2010,09,25,12,22,17.90
2010,09,25,12,23,17.80
2010,09,25,12,24,17.80
2010,09,25,12,25,17.70
2010,09,25,12,26,17.60
2010,09,25,12,27,17.50
2010,09,25,12,28,17.50
2010,09,25,12,29,17.40
2010,09,25,12,30,17.50
2010,09,25,12,31,17.50
2010,09,25,12,32,17.60
2010,09,25,12,33,17.60
2010,09,25,12,34,17.60
2010,09,25,12,35,17.70
2010,09,25,12,36,17.70
2010,09,25,12,37,17.70
2010,09,25,12,38,17.60
2010,09,25,12,39,17.60
2010,09,25,12,40,17.50
2010,09,25,12,41,17.50
2010,09,25,12,42,17.50
2010,09,25,12,43,17.50
2010,09,25,12,44,17.60
2010,09,25,12,45,17.70
2010,09,25,12,46,17.80
2010,09,25,12,47,17.80
2010,09,25,12,48,17.70
2010,09,25,12,49,17.70
2010,09,25,12,50,17.70
2010,09,25,12,51,17.70
2010,09,25,12,52,17.70
2010,09,25,12,53,17.70
2010,09,25,12,54,17.70
2010,09,25,12,55,17.70
2010,09,25,12,56,17.70
2010,09,25,12,57,17.70
2010,09,25,12,58,17.70
2010,09,25,12,59,17.80
2010,09,25,13,00,17.80
2010,09,25,13,01,17.90
2010,09,25,13,02,18.00
2010,09,25,13,03,18.10
2010,09,25,13,04,18.20
2010,09,25,13,05,18.20
2010,09,25,13,06,18.30
2010,09,25,13,07,18.30
2010,09,25,13,08,18.20
2010,09,25,13,09,18.20
2010,09,25,13,10,18.10
2010,09,25,13,11,18.10
2010,09,25,13,12,18.10
2010,09,25,13,13,18.10
2010,09,25,13,14,18.20
2010,09,25,13,15,18.20
2010,09,25,13,16,18.20
2010,09,25,13,17,18.30
2010,09,25,13,18,18.30
2010,09,25,13,19,18.40
2010,09,25,13,20,18.50
2010,09,25,13,21,18.50
2010,09,25,13,22,18.70
2010,09,25,13,23,18.80
2010,09,25,13,24,18.90
2010,09,25,13,25,19.00
2010,09,25,13,26,19.10
2010,09,25,13,27,19.00
2010,09,25,13,28,18.90
2010,09,25,13,29,18.90
2010,09,25,13,30,18.80
2010,09,25,13,31,18.80
2010,09,25,13,32,18.80
2010,09,25,13,33,18.80
2010,09,25,13,34,18.80
2010,09,25,13,35,18.80
2010,09,25,13,36,18.90
2010,09,25,13,37,18.90
2010,09,25,13,38,18.90
2010,09,25,13,39,18.80
2010,09,25,13,40,18.80
2010,09,25,13,41,18.80
2010,09,25,13,42,18.90
2010,09,25,13,43,18.90
2010,09,25,13,44,18.90
2010,09,25,13,45,18.90
2010,09,25,13,46,18.90
2010,09,25,13,47,18.80
2010,09,25,13,48,18.80
2010,09,25,13,49,18.70
2010,09,25,13,50,18.70
2010,09,25,13,51,18.70
2010,09,25,13,52,18.70
2010,09,25,13,53,18.70
2010,09,25,13,54,18.70
2010,09,25,13,55,18.60
2010,09,25,13,56,18.60
2010,09,25,13,57,18.60
2010,09,25,13,58,18.60
2010,09,25,13,59,18.60
2010,09,25,14,00,18.60
2010,09,25,14,01,18.50
2010,09,25,14,02,18.60
2010,09,25,14,03,18.60
2010,09,25,14,04,18.60
2010,09,25,14,05,18.60
2010,09,25,14,06,18.60
2010,09,25,14,07,18.50
2010,09,25,14,08,18.50
2010,09,25,14,09,18.50
2010,09,25,14,10,18.50
2010,09,25,14,11,18.50
2010,09,25,14,12,18.50
2010,09,25,14,13,18.50
2010,09,25,14,14,18.60
2010,09,25,14,15,18.60
2010,09,25,14,16,18.70
2010,09,25,14,17,18.80
2010,09,25,14,18,18.80
2010,09,25,14,19,18.90
2010,09,25,14,20,18.90
2010,09,25,14,21,18.90
2010,09,25,14,22,19.00
2010,09,25,14,23,19.00
2010,09,25,14,24,19.00
2010,09,25,14,25,19.00
2010,09,25,14,26,19.00
2010,09,25,14,27,18.90
2010,09,25,14,28,18.90
2010,09,25,14,29,18.90
2010,09,25,14,30,18.90
2010,09,25,14,31,19.00
2010,09,25,14,32,19.00
2010,09,25,14,33,19.00
2010,09,25,14,34,19.00
2010,09,25,14,35,19.00
2010,09,25,14,36,19.00
2010,09,25,14,37,19.00
2010,09,25,14,38,18.90
2010,09,25,14,39,18.90
2010,09,25,14,40,18.90
2010,09,25,14,41,18.90
2010,09,25,14,42,18.90
2010,09,25,14,43,18.90
2010,09,25,14,44,18.90
2010,09,25,14,45,19.00
2010,09,25,14,46,19.00
2010,09,25,14,47,19.00
2010,09,25,14,48,19.00
2010,09,25,14,49,19.00
2010,09,25,14,50,19.00
2010,09,25,14,51,19.00
2010,09,25,14,52,19.00
2010,09,25,14,53,19.00
2010,09,25,14,54,18.90
2010,09,25,14,55,18.90
2010,09,25,14,56,18.90
2010,09,25,14,57,18.90
2010,09,25,14,58,18.90
2010,09,25,14,59,18.80
2010,09,25,15,00,18.80
2010,09,25,15,01,18.80
2010,09,25,15,02,18.80
2010,09,25,15,03,18.80
2010,09,25,15,04,18.80
2010,09,25,15,05,18.80
2010,09,25,15,06,18.70
2010,09,25,15,07,18.70
2010,09,25,15,08,18.70
2010,09,25,15,09,18.70
2010,09,25,15,10,18.70
2010,09,25,15,11,18.70
2010,09,25,15,12,18.70
2010,09,25,15,13,18.70
2010,09,25,15,14,18.70
2010,09,25,15,15,18.80
2010,09,25,15,16,18.80
2010,09,25,15,17,18.90
2010,09,25,15,18,18.90
2010,09,25,15,19,19.00
2010,09,25,15,20,19.10
2010,09,25,15,21,19.10
2010,09,25,15,22,19.20
2010,09,25,15,23,19.20
2010,09,25,15,24,19.20
2010,09,25,15,25,19.30
2010,09,25,15,26,19.30
2010,09,25,15,27,19.30
2010,09,25,15,28,19.40
2010,09,25,15,29,19.40
2010,09,25,15,30,19.40
2010,09,25,15,31,19.30
2010,09,25,15,32,19.40
2010,09,25,15,33,19.40
2010,09,25,15,34,19.50
2010,09,25,15,35,19.50
2010,09,25,15,36,19.60
2010,09,25,15,37,19.70
2010,09,25,15,38,19.80
2010,09,25,15,39,19.90
2010,09,25,15,40,19.90
2010,09,25,15,41,19.90
2010,09,25,15,42,19.90
2010,09,25,15,43,19.90
2010,09,25,15,44,19.90
2010,09,25,15,45,19.80
2010,09,25,15,46,19.70
2010,09,25,15,47,19.70
2010,09,25,15,48,19.60
2010,09,25,15,49,19.50
2010,09,25,15,50,19.50
2010,09,25,15,51,19.50
2010,09,25,15,52,19.50
2010,09,25,15,53,19.50
2010,09,25,15,54,19.60
2010,09,25,15,55,19.60
2010,09,25,15,56,19.60
2010,09,25,15,57,19.50
2010,09,25,15,58,19.50
2010,09,25,15,59,19.50
2010,09,25,16,00,19.40
2010,09,25,16,01,19.50
2010,09,25,16,02,19.40
2010,09,25,16,03,19.40
2010,09,25,16,04,19.40
2010,09,25,16,05,19.40
2010,09,25,16,06,19.40
2010,09,25,16,07,19.40
2010,09,25,16,08,19.40
2010,09,25,16,09,19.40
2010,09,25,16,10,19.50
2010,09,25,16,11,19.60
2010,09,25,16,12,19.60
2010,09,25,16,13,19.70
2010,09,25,16,14,19.80
2010,09,25,16,15,19.80
2010,09,25,16,16,19.90
2010,09,25,16,17,19.90
2010,09,25,16,18,19.90
2010,09,25,16,19,19.90
2010,09,25,16,20,20.00
2010,09,25,16,21,20.00
2010,09,25,16,22,20.00
2010,09,25,16,23,19.90
2010,09,25,16,24,19.90
2010,09,25,16,25,19.80
2010,09,25,16,26,19.80
2010,09,25,16,27,19.80
2010,09,25,16,28,19.90
2010,09,25,16,29,19.90
2010,09,25,16,30,19.80
2010,09,25,16,31,19.80
2010,09,25,16,32,19.80
2010,09,25,16,33,19.80
2010,09,25,16,34,19.80
2010,09,25,16,35,19.80
2010,09,25,16,36,19.80
2010,09,25,16,37,19.80
2010,09,25,16,38,19.70
2010,09,25,16,39,19.70
2010,09,25,16,40,19.60
2010,09,25,16,41,19.50
2010,09,25,16,42,19.50
2010,09,25,16,43,19.40
2010,09,25,16,44,19.40
2010,09,25,16,45,19.40
2010,09,25,16,46,19.40
2010,09,25,16,47,19.30
2010,09,25,16,48,19.40
2010,09,25,16,49,19.40
2010,09,25,16,50,19.40
2010,09,25,16,51,19.40
2010,09,25,16,52,19.40
2010,09,25,16,53,19.40
2010,09,25,16,54,19.40
2010,09,25,16,55,19.50
2010,09,25,16,56,19.50
2010,09,25,16,57,19.50
2010,09,25,16,58,19.60
2010,09,25,16,59,19.60
2010,09,25,17,00,19.50
2010,09,25,17,01,19.50
2010,09,25,17,02,19.50
2010,09,25,17,03,19.50
2010,09,25,17,04,19.60
2010,09,25,17,05,19.60
2010,09,25,17,06,19.60
2010,09,25,17,07,19.60
2010,09,25,17,08,19.60
2010,09,25,17,09,19.50
2010,09,25,17,10,19.50
2010,09,25,17,11,19.40
2010,09,25,17,12,19.40
2010,09,25,17,13,19.30
2010,09,25,17,14,19.30
2010,09,25,17,15,19.30
2010,09,25,17,16,19.20
2010,09,25,17,17,19.20
2010,09,25,17,18,19.20
2010,09,25,17,19,19.20
2010,09,25,17,20,19.10
2010,09,25,17,21,19.10
2010,09,25,17,22,19.00
2010,09,25,17,23,18.90
2010,09,25,17,24,18.90
2010,09,25,17,25,18.80
2010,09,25,17,26,18.70
2010,09,25,17,27,18.70
2010,09,25,17,28,18.60
2010,09,25,17,29,18.60
2010,09,25,17,30,18.60
2010,09,25,17,31,18.60
2010,09,25,17,32,18.60
2010,09,25,17,33,18.60
2010,09,25,17,34,18.60
2010,09,25,17,35,18.60
2010,09,25,17,36,18.60
2010,09,25,17,37,18.70
2010,09,25,17,38,18.70
2010,09,25,17,39,18.80
2010,09,25,17,40,18.90
2010,09,25,17,41,18.90
2010,09,25,17,42,18.90
2010,09,25,17,43,18.90
2010,09,25,17,44,18.90
2010,09,25,17,45,18.90
2010,09,25,17,46,18.90
2010,09,25,17,47,18.80
2010,09,25,17,48,18.80
2010,09,25,17,49,18.80
2010,09,25,17,50,18.80
2010,09,25,17,51,18.80
2010,09,25,17,52,18.80
2010,09,25,17,53,18.70
2010,09,25,17,54,18.70
2010,09,25,17,55,18.70
2010,09,25,17,56,18.70
2010,09,25,17,57,18.70
2010,09,25,17,58,18.70
2010,09,25,17,59,18.70
2010,09,25,18,00,18.70
2010,09,25,18,01,18.70
2010,09,25,18,02,18.70
2010,09,25,18,03,18.70
2010,09,25,18,04,18.70
2010,09,25,18,05,18.70
2010,09,25,18,06,18.70
2010,09,25,18,07,18.70
2010,09,25,18,08,18.70
2010,09,25,18,09,18.70
2010,09,25,18,10,18.70
2010,09,25,18,11,18.80
2010,09,25,18,12,18.80
2010,09,25,18,13,18.80
2010,09,25,18,14,18.80
2010,09,25,18,15,18.80
2010,09,25,18,16,18.80
2010,09,25,18,17,18.90
2010,09,25,18,18,18.90
2010,09,25,18,19,18.80
2010,09,25,18,20,18.80
2010,09,25,18,21,18.80
2010,09,25,18,22,18.80
2010,09,25,18,23,18.70
2010,09,25,18,24,18.70
2010,09,25,18,25,18.60
2010,09,25,18,26,18.60
2010,09,25,18,27,18.50
2010,09,25,18,28,18.50
2010,09,25,18,29,18.40
2010,09,25,18,30,18.30
2010,09,25,18,31,18.20
2010,09,25,18,32,18.20
2010,09,25,18,33,18.10
2010,09,25,18,34,18.00
2010,09,25,18,35,17.90
2010,09,25,18,36,17.80
2010,09,25,18,37,17.80
2010,09,25,18,38,17.70
2010,09,25,18,39,17.70
2010,09,25,18,40,17.60
2010,09,25,18,41,17.60
2010,09,25,18,42,17.60
2010,09,25,18,43,17.60
2010,09,25,18,44,17.60
2010,09,25,18,45,17.60
2010,09,25,18,46,17.60
2010,09,25,18,47,17.60
2010,09,25,18,48,17.60
2010,09,25,18,49,17.60
2010,09,25,18,50,17.60
2010,09,25,18,51,17.60
2010,09,25,18,52,17.50
2010,09,25,18,53,17.50
2010,09,25,18,54,17.40
2010,09,25,18,55,17.40
2010,09,25,18,56,17.40
2010,09,25,18,57,17.40
2010,09,25,18,58,17.30
2010,09,25,18,59,17.30
2010,09,25,19,00,17.30
2010,09,25,19,01,17.30
2010,09,25,19,02,17.20
2010,09,25,19,03,17.20
2010,09,25,19,04,17.20
2010,09,25,19,05,17.10
2010,09,25,19,06,17.10
2010,09,25,19,07,17.10
2010,09,25,19,08,17.00
2010,09,25,19,09,17.00
2010,09,25,19,10,16.90
2010,09,25,19,11,16.90
2010,09,25,19,12,16.80
2010,09,25,19,13,16.80
2010,09,25,19,14,16.80
2010,09,25,19,15,16.70
2010,09,25,19,16,16.70
2010,09,25,19,17,16.70
2010,09,25,19,18,16.70
2010,09,25,19,19,16.70
2010,09,25,19,20,16.60
2010,09,25,19,21,16.60
2010,09,25,19,22,16.60
2010,09,25,19,23,16.60
2010,09,25,19,24,16.60
2010,09,25,19,25,16.60
2010,09,25,19,26,16.60
2010,09,25,19,27,16.50
2010,09,25,19,28,16.50
2010,09,25,19,29,16.50
2010,09,25,19,30,16.40
2010,09,25,19,31,16.40
2010,09,25,19,32,16.40
2010,09,25,19,33,16.40
2010,09,25,19,34,16.30
2010,09,25,19,35,16.30
2010,09,25,19,36,16.30
2010,09,25,19,37,16.30
2010,09,25,19,38,16.20
2010,09,25,19,39,16.20
2010,09,25,19,40,16.20
2010,09,25,19,41,16.10
2010,09,25,19,42,16.10
2010,09,25,19,43,16.10
2010,09,25,19,44,16.10
2010,09,25,19,45,16.10
2010,09,25,19,46,16.10
2010,09,25,19,47,16.10
2010,09,25,19,48,16.10
2010,09,25,19,49,16.00
2010,09,25,19,50,16.00
2010,09,25,19,51,16.00
2010,09,25,19,52,16.00
2010,09,25,19,53,16.00
2010,09,25,19,54,16.00
2010,09,25,19,55,15.90
2010,09,25,19,56,15.90
2010,09,25,19,57,15.90
2010,09,25,19,58,15.90
2010,09,25,19,59,15.90
2010,09,25,20,00,15.90
2010,09,25,20,01,15.90
2010,09,25,20,02,15.90
2010,09,25,20,03,15.90
2010,09,25,20,04,15.90
2010,09,25,20,05,15.90
2010,09,25,20,06,15.90
2010,09,25,20,07,15.90
2010,09,25,20,08,15.90
2010,09,25,20,09,15.90
2010,09,25,20,10,15.80
2010,09,25,20,11,15.80
2010,09,25,20,12,15.80
2010,09,25,20,13,15.80
2010,09,25,20,14,15.80
2010,09,25,20,15,15.80
2010,09,25,20,16,15.80
2010,09,25,20,17,15.80
2010,09,25,20,18,15.80
2010,09,25,20,19,15.80
2010,09,25,20,20,15.80
2010,09,25,20,21,15.80
2010,09,25,20,22,15.80
2010,09,25,20,23,15.80
2010,09,25,20,24,15.80
2010,09,25,20,25,15.80
2010,09,25,20,26,15.80
2010,09,25,20,27,15.80
2010,09,25,20,28,15.80
2010,09,25,20,29,15.80
2010,09,25,20,30,15.80
2010,09,25,20,31,15.80
2010,09,25,20,32,15.80
2010,09,25,20,33,15.80
2010,09,25,20,34,15.80
2010,09,25,20,35,15.80
2010,09,25,20,36,15.80
2010,09,25,20,37,15.80
2010,09,25,20,38,15.70
2010,09,25,20,39,15.70
2010,09,25,20,40,15.70
2010,09,25,20,41,15.70
2010,09,25,20,42,15.70
2010,09,25,20,43,15.70
2010,09,25,20,44,15.70
2010,09,25,20,45,15.70
2010,09,25,20,46,15.70
2010,09,25,20,47,15.70
2010,09,25,20,48,15.70
2010,09,25,20,49,15.70
2010,09,25,20,50,15.70
2010,09,25,20,51,15.60
2010,09,25,20,52,15.60
2010,09,25,20,53,15.60
2010,09,25,20,54,15.60
2010,09,25,20,55,15.60
2010,09,25,20,56,15.60
2010,09,25,20,57,15.60
2010,09,25,20,58,15.60
2010,09,25,20,59,15.60
2010,09,25,21,00,15.60
2010,09,25,21,01,15.60
2010,09,25,21,02,15.60
2010,09,25,21,03,15.60
2010,09,25,21,04,15.60
2010,09,25,21,05,15.60
2010,09,25,21,06,15.60
2010,09,25,21,07,15.60
2010,09,25,21,08,15.60
2010,09,25,21,09,15.60
2010,09,25,21,10,15.60
2010,09,25,21,11,15.60
2010,09,25,21,12,15.60
2010,09,25,21,13,15.60
2010,09,25,21,14,15.60
2010,09,25,21,15,15.60
2010,09,25,21,16,15.60
2010,09,25,21,17,15.60
2010,09,25,21,18,15.60
2010,09,25,21,19,15.60
2010,09,25,21,20,15.60
2010,09,25,21,21,15.60
2010,09,25,21,22,15.60
2010,09,25,21,23,15.60
2010,09,25,21,24,15.60
2010,09,25,21,25,15.60
2010,09,25,21,26,15.60
2010,09,25,21,27,15.60
2010,09,25,21,28,15.60
2010,09,25,21,29,15.60
2010,09,25,21,30,15.60
2010,09,25,21,31,15.60
2010,09,25,21,32,15.60
2010,09,25,21,33,15.60
2010,09,25,21,34,15.60
2010,09,25,21,35,15.60
2010,09,25,21,36,15.50
2010,09,25,21,37,15.50
2010,09,25,21,38,15.50
2010,09,25,21,39,15.50
2010,09,25,21,40,15.40
2010,09,25,21,41,15.40
2010,09,25,21,42,15.40
2010,09,25,21,43,15.30
2010,09,25,21,44,15.30
2010,09,25,21,45,15.30
2010,09,25,21,46,15.20
2010,09,25,21,47,15.20
2010,09,25,21,48,15.20
2010,09,25,21,49,15.10
2010,09,25,21,50,15.10
2010,09,25,21,51,15.00
2010,09,25,21,52,15.00
2010,09,25,21,53,15.00
2010,09,25,21,54,15.00
2010,09,25,21,55,15.00
2010,09,25,21,56,15.00
2010,09,25,21,57,15.00
2010,09,25,21,58,15.00
2010,09,25,21,59,15.00
2010,09,25,22,00,15.00
2010,09,25,22,01,15.00
2010,09,25,22,02,15.00
2010,09,25,22,03,15.00
2010,09,25,22,04,15.00
2010,09,25,22,05,15.00
2010,09,25,22,06,15.00
2010,09,25,22,07,15.00
2010,09,25,22,08,15.00
2010,09,25,22,09,15.00
2010,09,25,22,10,15.00
2010,09,25,22,11,15.00
2010,09,25,22,12,15.00
2010,09,25,22,13,15.00
2010,09,25,22,14,15.00
2010,09,25,22,15,15.00
2010,09,25,22,16,15.00
2010,09,25,22,17,15.00
2010,09,25,22,18,15.00
2010,09,25,22,19,15.00
2010,09,25,22,20,15.00
2010,09,25,22,21,15.00
2010,09,25,22,22,15.00
2010,09,25,22,23,15.00
